Regional Weather Roundup
Issued by NWS

Home | Current Version | Previous Version | Graphics & Text | Print | Product List | Glossary On
Versions: 1 2 3 4 5 6 7 8 9 10 11 12 13 14 15 16 17 18 19 20 21 22 23 24 25 26 27 28 29 30 31 32 33 34 35 36 37 38 39 40 41 42 43 44 45 46 47 48 49 50
000
ASUS43 KDMX 020304
RWRIA

WEATHER ROUNDUP FOR IOWA
NATIONAL WEATHER SERVICE DES MOINES IA
  ISSUED BY NWS QUAD CITIES IA IL
900 PM CST SUN MAR 01 2015

NOTE: "FAIR" INDICATES FEW OR NO CLOUDS BELOW 12,000 FEET WITH NO
SIGNIFICANT WEATHER AND/OR OBSTRUCTIONS TO VISIBILITY.

* - THESE STATIONS ARE NOT NWS STATIONS...THUS NOT UNDER NWS
QUALITY CONTROL.  THEY ALSO DO NOT REPORT WEATHER SUCH
AS PRECIPITATION OR FOG.

IAZ001>003-012>014-020>022-031>034-043>046-020400-
   NORTHWEST IOWA

CITY           SKY/WX    TMP DP  RH WIND       PRES   REMARKS
CARROLL *      PTCLDY    19  14  79 W10       30.38R WCI   8
CHEROKEE *     CLEAR     22  14  71 N7        30.41R WCI  14
DENNISON *     CLEAR     19  16  86 CALM      30.39R
LE MARS *      CLEAR     19  14  79 N5        30.42R WCI  13
ORANGE CITY *  CLEAR     23  16  74 N7        30.40R WCI  15
SHELDON *      FAIR      19  14  79 NW8       30.38R WCI   9
SIOUX CITY     CLEAR     26  14  60 N10       30.42R WCI  16
SPENCER        CLEAR     15  10  80 NW8       30.38R WCI   4
STORM LAKE *   CLEAR     21  14  73 NW10      30.39R WCI  10
$$

IAZ055>058-069>071-079>083-090>094-020400-
   SOUTHWEST IOWA

CITY           SKY/WX    TMP DP  RH WIND       PRES   REMARKS
ATLANTIC *     PTCLDY    23  19  86 SW5       30.40R WCI  17
AUDUBON *      CLEAR     16  10  79 CALM      30.40R
CLARINDA *     MOCLDY    23  18  80 CALM      30.45R
COUNCIL BLFS * CLEAR     28  18  64 SE5       30.40R WCI  23
CRESTON *      PTCLDY    23  16  74 CALM      30.41R
HARLAN *       CLEAR     23  21  93 CALM      30.44R
LAMONI         MOCLDY    28  18  66 N3        30.42R
RED OAK *      PTCLDY    23  19  86 CALM      30.43R
SHENANDOAH *   MOCLDY    23  18  80 CALM      30.44R
$$

IAZ047>049-059>061-072>074-084-020400-
   CENTRAL IOWA

CITY           SKY/WX    TMP DP  RH WIND       PRES   REMARKS
AMES           CLEAR     19  13  77 SW10      30.39R WCI   7
ANKENY *       CLEAR     19  14  79 SW3       30.41S
BOONE *        CLEAR     23  16  74 W6        30.37R WCI  16
CHARITON *     CLOUDY    25  18  74 CALM      30.41F
DES MOINES     PTCLDY    25  14  63 S7        30.40S WCI  17
GRINNELL *     PTCLDY    20  14  76 SW7       30.39S WCI  12
KNOXVILLE *    FAIR      23  16  74 S5        30.40S WCI  17
MARSHALLTOWN   CLEAR     17  11  77 W5        30.37R WCI  10
NEWTON *       CLEAR     23  14  68 SW6       30.39S WCI  16
PELLA *        CLEAR     23  18  80 SW3       30.42S
PERRY *          N/A     21  17  84 SW7       30.39R WCI  13
$$

IAZ004>006-015-016-023>025-035-036-020400-
   NORTH CENTRAL IOWA

CITY           SKY/WX    TMP DP  RH WIND       PRES   REMARKS
ALGONA *       CLEAR     21  21 100 NW12      30.37R WCI   9
CLARION *      CLEAR     14  12  92 W10       30.37R WCI   1
ESTHERVILLE    CLEAR     18  12  77 NW10      30.36R WCI   6
FORT DODGE *   CLEAR     21  14  73 W3        30.39R
MASON CITY     CLEAR     16   9  74 W12       30.35R WCI   3
FOREST CITY *  FAIR      18  10  73 W8        30.34S WCI   7
WEBSTER CITY * CLEAR     18  18 100 W12       30.36R WCI   5
IOWA FALLS *   FAIR      10   7  88 CALM      30.37S
$$

IAZ007>011-017>019-026>030-037>042-050>054-066-020400-
   NORTHEAST IOWA

CITY           SKY/WX    TMP DP  RH WIND       PRES   REMARKS
CEDAR RAPIDS   CLEAR     13   9  84 SW7       30.38R WCI   3
CHARLES CITY * PTCLDY    16  10  79 W8        30.33S WCI   5
CLINTON *      CLEAR     12   7  79 W12       30.40S WCI  -2
DECORAH *      CLEAR     18  10  73 W7        30.30S WCI   8
DUBUQUE        CLEAR      9   4  80 SW7       30.34S WCI  -2
MONTICELLO *   CLEAR      9   7  92 S3        30.37S
OELWEIN *      CLEAR     14   9  79 SW9       30.34S WCI   2
WATERLOO       CLEAR     17  11  77 W6        30.36S WCI   9
$$

IAZ064-065-067-068-078-020400-
   EAST CENTRAL IOWA

CITY           SKY/WX    TMP DP  RH WIND       PRES   REMARKS
DAVENPORT      CLEAR      8   3  80 W9        30.39S WCI  -5
IOWA CITY      CLEAR     14   9  80 W3        30.42S
MT. PLEASANT * PTCLDY    22  16  78 NW5       30.43R WCI  16
MUSCATINE *    CLEAR     19  10  68 W3        30.43S
QUAD CITIES    PTCLDY    21  10  62 W9        30.40R WCI  11
$$

IAZ062-063-075>077-085>089-095>099-020400-
   SOUTHEAST IOWA

CITY           SKY/WX    TMP DP  RH WIND       PRES   REMARKS
BURLINGTON     MOCLDY    22  16  78 NW5       30.43R WCI  16
FAIRFIELD *    PTCLDY    19  12  73 NW6       30.43S WCI  11
FORT MADISON * MOCLDY    21  18  86 CALM      30.44R
KEOKUK *       CLOUDY    23  18  80 W6        30.43R WCI  16
OSKALOOSA *    FAIR      19  13  80 NW3       30.42S
CENTERVILLE *  FAIR      25  19  80 N3        30.43F
OTTUMWA        PTCLDY    21  14  74 NW3       30.42S
WASHINGTON *   PTCLDY    19  18  93 W6        30.42S WCI  11
$$

ABBREVIATIONS USED IN REMARKS
   TC - TEMPERATURES IN CELSIUS
  WCI - WIND CHILL INDEX
   HX - HEAT INDEX
  VSB - VISIBILITY
$$


USA.gov is the U.S. government's official web portal to all federal, state and local government web resources and services.